[[{"header":{"parameterUnit":"m.s-1","parameterCategory":1,"la1":30.2991,"la2":30.254,"lo1":-89.0895,"lo2":-89.0444,"dy":0.0017,"dx":0.0017,"nx":28,"ny":28,"refTime":"2023-11-03T03:00:00:Z","depth":0,"parameterNumber":2,"parameterNumberName":"U-component_of_WINDS"},"data":[0,0,0,0,0,0,0,0,0,0,0,0,0,0,0,0,0,0,0,0,0,0,0,0,0,0,0,0,0,0,0,0,0,0,0,0,0,0,0,0,0,0,0,0,0,0,0,0,0,0,0,0,0,0,0,0,0,0,-1.7252,-1.7253,0,-1.7347,-1.7348,-1.7349,-1.7286,-1.7283,-1.7281,-1.7278,-1.7379,-1.7384,-1.7389,0,0,0,0,0,0,0,0,0,0,0,0,0,-1.702,-1.7024,-1.7252,-1.7253,-1.7254,-1.7347,-1.7348,-1.735,-1.7287,-1.7283,-1.728,-1.7276,-1.7377,-1.7383,-1.739,0,0,0,0,0,0,0,0,0,0,0,0,0,-1.7119,-1.7026,-1.7252,-1.7234,-1.7234,-1.7347,-1.7348,-1.735,-1.7288,-1.7283,-1.7279,-1.7275,-1.7375,-1.7383,-1.7391,-1.7528,0,0,-1.7415,-1.7419,0,0,0,0,0,0,0,0,-1.7113,-1.7127,-1.7236,-1.7236,-1.7235,-1.73,-1.7303,-1.741,-1.7289,-1.7267,-1.7278,-1.7273,-1.7356,-1.7366,-1.7393,-1.7532,-1.7537,-1.7416,-1.7421,-1.7424,-1.7427,0,0,0,0,0,0,0,-1.7106,-1.7123,-1.729,-1.7237,-1.7237,-1.7223,-1.7232,-1.7323,-1.7335,-1.7269,-1.7264,-1.7276,-1.7355,-1.7386,-1.7395,-1.7538,-1.7416,-1.7423,-1.7428,-1.7431,-1.7797,-1.7801,0,0,0,0,0,0,-1.71,-1.7117,-1.7287,-1.7293,-1.7162,-1.723,-1.7241,-1.7284,-1.7334,-1.7337,-1.728,-1.7273,-1.7374,-1.7386,-1.7398,-1.7564,-1.7424,-1.7432,-1.7437,-1.7792,-1.7798,-1.7803,0,0,0,0,0,0,-1.7096,-1.7116,-1.7283,-1.7204,-1.7224,-1.7239,-1.7288,-1.7288,-1.7318,-1.7342,-1.7345,-1.7308,-1.7371,-1.7387,-1.7496,-1.7566,-1.7436,-1.7443,-1.7786,-1.7794,-1.78,-1.7895,0,0,0,0,0,0,-1.7089,-1.7115,-1.7166,-1.7205,-1.7228,-1.7378,-1.7292,-1.7293,-1.7332,-1.7324,-1.737,-1.7373,-1.7369,-1.7485,-1.7504,-1.7575,-1.7449,-1.778,-1.7789,-1.7798,-1.7886,-1.7904,-1.7921,0,0,0,0,0,-1.7081,-1.7189,-1.7169,-1.719,-1.7293,-1.7382,-1.7396,-1.7388,-1.7338,-1.739,-1.7406,-1.7372,-1.7555,-1.7496,-1.7518,-1.7592,-1.7775,-1.7787,-1.7797,-1.7878,-1.7901,-1.792,0,0,0,0,0,0,-1.7159,-1.7194,-1.7172,-1.7296,-1.7337,-1.7372,-1.7438,-1.7412,-1.7469,-1.7459,-1.7447,-1.7458,-1.7573,-1.7593,-1.7527,-1.7728,-1.7658,-1.7673,-1.7711,-1.7733,-1.7751,-1.7744,-1.7456,0,0,0,0,0,-1.719,-1.7259,-1.7286,-1.7393,-1.7414,-1.7423,-1.7461,-1.7451,-1.7494,-1.7511,-1.7534,-1.7578,-1.7645,-1.769,-1.7753,-1.7887,-1.7898,-1.7949,-1.7967,-1.7981,-1.7996,-1.807,-1.8094,-1.7839,-1.7839,-1.7838,0,0,-1.7256,-1.7284,-1.7328,-1.7409,-1.744,-1.7513,-1.7438,-1.7517,-1.7572,-1.7523,-1.7628,-1.7647,-1.7695,-1.7817,-1.7873,-1.7838,-1.8068,-1.7995,-1.8006,-1.8013,-1.8084,-1.8108,-1.813,-1.7846,-1.7845,-1.7844,0,0,-1.7414,-1.7441,-1.7533,-1.7565,-1.7612,-1.7617,-1.7639,-1.7678,-1.7689,-1.7793,-1.7759,-1.7824,-1.794,-1.7976,-1.8009,-1.8181,-1.8152,-1.8202,-1.8294,-1.8367,-1.8387,-1.8405,-1.8469,-1.8491,-1.8216,-1.8216,-1.8216,0,-1.7491,-1.7598,-1.7585,-1.7668,-1.7705,-1.7663,-1.7758,-1.779,-1.7855,-1.7883,-1.7843,-1.7988,-1.8017,-1.8149,-1.8191,-1.8218,-1.8245,-1.8197,-1.8385,-1.8403,-1.8419,-1.848,-1.8503,-1.8222,-1.8221,-1.822,-1.822,0,-1.7691,-1.7766,-1.7835,-1.7899,-1.7944,-1.8032,-1.8034,-1.8082,-1.8068,-1.8077,-1.8185,-1.8218,-1.8289,-1.8318,-1.8306,-1.8449,-1.8426,-1.8386,-1.8315,-1.845,-1.8507,-1.8529,-1.823,-1.8228,-1.8226,-1.8225,0,0,-1.7901,-1.7956,-1.7982,-1.8011,-1.8059,-1.8118,-1.8205,-1.8272,-1.8315,-1.8361,-1.8435,-1.8534,-1.8497,-1.8536,-1.8527,-1.859,-1.8727,-1.8542,-1.8543,-1.8577,-1.8889,-1.8921,-1.8948,-1.8707,-1.8712,-1.8715,-1.8886,0,-1.8063,-1.8214,-1.8205,-1.8348,-1.8418,-1.8379,-1.8456,-1.8495,-1.8506,-1.8568,-1.8581,-1.8652,-1.8597,-1.862,-1.8681,-1.8697,-1.879,-1.8685,-1.8779,-1.8782,-1.877,-1.8977,-1.9011,-1.9171,-1.8908,-1.8912,-1.8914,0,-1.8273,-1.8326,-1.8476,-1.8515,-1.8544,-1.8612,-1.8674,-1.8733,-1.8777,-1.8781,-1.8824,-1.8805,-1.8895,-1.882,-1.8945,-1.8873,-1.8911,-1.8925,-1.8931,-1.8942,-1.8858,-1.8996,-1.9222,-1.9247,-1.8949,-1.8946,-1.8944,0,-1.8415,-1.8523,-1.8627,-1.8653,-1.87,-1.875,-1.8772,-1.8811,-1.8853,-1.8907,-1.8934,-1.8999,-1.9035,-1.9086,-1.9085,-1.903,-1.9213,-1.9137,-1.922,-1.9221,-1.9262,-1.926,-1.95,-1.9283,-1.9283,-1.9282,-1.9282,0,-1.8598,-1.8692,-1.8692,-1.8756,-1.886,-1.8849,-1.8953,-1.897,-1.9006,-1.9074,-1.9043,-1.9108,-1.9103,-1.9169,-1.9169,-1.9274,-1.9289,-1.9297,-1.9296,-1.9301,-1.93,-1.9327,-1.9317,-1.9288,-1.9287,-1.9286,-1.9285,0,-1.8775,-1.8778,-1.8889,-1.8925,-1.8936,-1.9011,-1.9042,-1.9104,-1.9112,-1.9199,-1.9219,-1.9233,-1.9309,-1.9313,-1.94,-1.9401,-1.9529,-1.9515,-1.9514,-1.9512,-1.9596,-1.959,-1.9864,-1.99,-1.9657,-1.966,-1.9661,0,-1.8893,-1.8964,-1.9007,-1.905,-1.9075,-1.9144,-1.9186,-1.9178,-1.9224,-1.9279,-1.9335,-1.9408,-1.9466,-1.959,-1.9609,-1.9677,-1.9665,-1.9757,-1.9675,-1.9679,-1.967,-1.9667,-1.9675,-1.9773,-1.9776,-1.9778,-1.978,0,-1.9103,-1.9101,-1.9162,-1.9225,-1.9275,-1.9325,-1.937,-1.9407,-1.9405,-1.9458,-1.9535,-1.958,-1.9669,-1.9743,-1.9809,-1.9833,-1.9808,-1.9805,-1.9828,-1.9835,-1.9833,-1.9838,-1.956,-1.9799,-1.9798,-1.9796,-1.9795,-1.9794,-1.9255,-1.9317,-1.9357,-1.9427,-1.946,-1.9504,-1.9564,-1.9579,-1.9643,-1.9715,-1.9706,-1.9792,-1.9836,-1.9921,-1.9951,-2.0019,-1.9988,-2.0022,-2.003,-2.0039,-2.005,-1.982,-2.0031,-2.003,-2.003,-2.003,-2.0029,0,-1.9466,-1.9489,-1.9553,-1.9618,-1.9673,-1.9642,-1.9691,-1.974,-1.9816,-1.9857,-1.9915,-2.0005,-2.0076,-2.01,-2.017,-2.0221,-2.0211,-2.024,-2.0237,-2.0244,-2.0072,-2.0046,-2.0246,-2.0246,-2.0246,-2.0246,-2.0246,-2.0246,-1.9582,-1.9686,-1.9689,-1.9809,-1.9832,-1.9916,-1.9947,-1.9988,-2.0021,-2.0122,-2.0181,-2.0195,-2.0231,-2.0303,-2.0368,-2.0374,-2.0402,-2.0436,-2.0437,-2.0277,-2.0255,-2.0235,-2.021,-2.0442,-2.0442,-2.0604,-2.0605,-2.0606]},{"header":{"parameterUnit":"m.s-1","parameterCategory":1,"la1":30.2991,"la2":30.254,"lo1":-89.0895,"lo2":-89.0444,"dy":0.0017,"dx":0.0017,"nx":28,"ny":28,"refTime":"2023-11-03T03:00:00:Z","depth":0,"parameterNumber":3,"parameterNumberName":"V-component_of_WINDS"},"data":[0,0,0,0,0,0,0,0,0,0,0,0,0,0,0,0,0,0,0,0,0,0,0,0,0,0,0,0,0,0,0,0,0,0,0,0,0,0,0,0,0,0,0,0,0,0,0,0,0,0,0,0,0,0,0,0,0,0,-2.5209,-2.5209,0,-2.5164,-2.5164,-2.5163,-2.5114,-2.5113,-2.5113,-2.5112,-2.5066,-2.5065,-2.5065,0,0,0,0,0,0,0,0,0,0,0,0,0,-2.5252,-2.5251,-2.5209,-2.5209,-2.5208,-2.5164,-2.5164,-2.5163,-2.5114,-2.5113,-2.5112,-2.5112,-2.5066,-2.5065,-2.5065,0,0,0,0,0,0,0,0,0,0,0,0,0,-2.5223,-2.5251,-2.5209,-2.5178,-2.5175,-2.5164,-2.5164,-2.5163,-2.5114,-2.5113,-2.5112,-2.5111,-2.5066,-2.5065,-2.5064,-2.508,0,0,-2.5062,-2.5061,0,0,0,0,0,0,0,0,-2.5224,-2.5221,-2.5183,-2.518,-2.5177,-2.5144,-2.5161,-2.5135,-2.5115,-2.5137,-2.5112,-2.5111,-2.5092,-2.5089,-2.5083,-2.5078,-2.5076,-2.5062,-2.5061,-2.5061,-2.5061,0,0,0,0,0,0,0,-2.5226,-2.5223,-2.5191,-2.5183,-2.5179,-2.5166,-2.5161,-2.5156,-2.5121,-2.5135,-2.5132,-2.5127,-2.509,-2.5084,-2.5082,-2.5076,-2.5062,-2.5061,-2.5061,-2.506,-2.5078,-2.5079,0,0,0,0,0,0,-2.5233,-2.5225,-2.5193,-2.519,-2.5198,-2.5166,-2.5161,-2.5155,-2.5121,-2.5115,-2.5128,-2.5125,-2.5086,-2.5083,-2.508,-2.5094,-2.5061,-2.506,-2.506,-2.5077,-2.5079,-2.508,0,0,0,0,0,0,-2.5234,-2.5231,-2.5195,-2.5206,-2.5201,-2.5167,-2.5161,-2.5155,-2.5149,-2.5116,-2.5109,-2.5128,-2.5085,-2.5081,-2.508,-2.5092,-2.506,-2.5059,-2.5076,-2.5078,-2.5079,-2.5124,0,0,0,0,0,0,-2.5236,-2.5231,-2.5237,-2.5207,-2.52,-2.5196,-2.5162,-2.5155,-2.5147,-2.5143,-2.5114,-2.5108,-2.5084,-2.5082,-2.5079,-2.509,-2.5058,-2.5075,-2.5077,-2.5079,-2.5122,-2.5127,-2.5132,0,0,0,0,0,-2.5237,-2.5253,-2.5238,-2.5234,-2.5207,-2.5197,-2.5193,-2.5165,-2.5149,-2.5154,-2.5132,-2.5109,-2.5092,-2.5082,-2.5079,-2.509,-2.5074,-2.5076,-2.5079,-2.5119,-2.5126,-2.5132,0,0,0,0,0,0,-2.5286,-2.5248,-2.5232,-2.5237,-2.5221,-2.5188,-2.5194,-2.5173,-2.5161,-2.5157,-2.5123,-2.5117,-2.5119,-2.5104,-2.5094,-2.5102,-2.5079,-2.5081,-2.5111,-2.5118,-2.5123,-2.5125,-2.5058,0,0,0,0,0,-2.5297,-2.5292,-2.5259,-2.5268,-2.526,-2.5229,-2.5223,-2.5203,-2.5184,-2.5177,-2.5155,-2.5138,-2.5128,-2.5122,-2.5112,-2.512,-2.5111,-2.5126,-2.5131,-2.5135,-2.5137,-2.5138,-2.5143,-2.5087,-2.5087,-2.5087,0,0,-2.5321,-2.5299,-2.5298,-2.5277,-2.5261,-2.5256,-2.5223,-2.522,-2.5215,-2.5176,-2.5173,-2.5157,-2.5135,-2.5138,-2.5138,-2.5126,-2.515,-2.5138,-2.5142,-2.5141,-2.514,-2.5146,-2.515,-2.5089,-2.5088,-2.5088,0,0,-2.536,-2.5344,-2.5348,-2.5333,-2.531,-2.5289,-2.529,-2.5261,-2.5248,-2.5245,-2.5215,-2.5209,-2.5194,-2.5178,-2.5169,-2.5201,-2.5178,-2.5199,-2.5225,-2.5226,-2.5231,-2.5234,-2.5244,-2.5248,-2.52,-2.5201,-2.5201,0,-2.5392,-2.5383,-2.5353,-2.5351,-2.5341,-2.5306,-2.5309,-2.5296,-2.5271,-2.5265,-2.5251,-2.5229,-2.5212,-2.521,-2.5218,-2.5212,-2.5211,-2.5201,-2.5233,-2.5236,-2.5239,-2.5248,-2.5251,-2.5203,-2.5203,-2.5202,-2.5202,0,-2.5422,-2.5417,-2.5423,-2.5398,-2.539,-2.539,-2.536,-2.5355,-2.5335,-2.5315,-2.5311,-2.5289,-2.5272,-2.527,-2.5252,-2.5265,-2.5257,-2.5239,-2.5215,-2.5247,-2.5255,-2.5258,-2.5207,-2.5206,-2.5205,-2.5204,0,0,-2.5491,-2.5449,-2.5452,-2.5439,-2.5411,-2.5406,-2.5404,-2.5387,-2.5383,-2.5366,-2.5363,-2.535,-2.5332,-2.5321,-2.53,-2.5301,-2.5325,-2.5282,-2.5281,-2.5289,-2.5336,-2.5349,-2.5353,-2.5311,-2.5311,-2.5312,-2.5337,0,-2.5524,-2.5518,-2.5491,-2.5493,-2.5487,-2.5452,-2.5451,-2.5432,-2.5414,-2.5405,-2.5384,-2.5374,-2.5352,-2.5345,-2.5345,-2.5323,-2.5334,-2.5321,-2.5306,-2.5305,-2.5311,-2.5358,-2.5372,-2.5397,-2.534,-2.5341,-2.5341,0,-2.5561,-2.5546,-2.5548,-2.5518,-2.5514,-2.5513,-2.5495,-2.5487,-2.5465,-2.5451,-2.5438,-2.5415,-2.5409,-2.5388,-2.538,-2.5371,-2.5363,-2.5351,-2.5351,-2.5348,-2.5324,-2.5353,-2.5405,-2.5408,-2.5346,-2.5345,-2.5345,0,-2.5608,-2.5589,-2.5587,-2.5578,-2.5544,-2.5543,-2.5529,-2.5506,-2.5497,-2.5481,-2.5474,-2.5458,-2.5449,-2.5436,-2.5408,-2.5395,-2.5402,-2.5379,-2.5389,-2.5389,-2.5391,-2.5391,-2.5439,-2.5389,-2.5389,-2.5389,-2.5389,0,-2.5647,-2.5649,-2.5608,-2.5606,-2.5607,-2.5575,-2.5576,-2.5558,-2.5538,-2.5532,-2.5502,-2.5496,-2.546,-2.545,-2.5428,-2.5423,-2.542,-2.5407,-2.5401,-2.5409,-2.541,-2.5402,-2.5399,-2.539,-2.5389,-2.5389,-2.5389,0,-2.5699,-2.5672,-2.5667,-2.5635,-2.5626,-2.5628,-2.56,-2.5596,-2.5576,-2.5568,-2.5564,-2.5531,-2.5518,-2.5489,-2.5468,-2.5453,-2.5452,-2.5443,-2.546,-2.5456,-2.5467,-2.5465,-2.5511,-2.5514,-2.5463,-2.5464,-2.5464,0,-2.5725,-2.5725,-2.5693,-2.5686,-2.5673,-2.5663,-2.5654,-2.5623,-2.5614,-2.5588,-2.5587,-2.5572,-2.5557,-2.5537,-2.5511,-2.5494,-2.5482,-2.5499,-2.5479,-2.5487,-2.548,-2.548,-2.5478,-2.5503,-2.5504,-2.5505,-2.5505,0,-2.5773,-2.5759,-2.5746,-2.5729,-2.5719,-2.5704,-2.5687,-2.5683,-2.5647,-2.5639,-2.5625,-2.5614,-2.5591,-2.5575,-2.5554,-2.5538,-2.5515,-2.5512,-2.5512,-2.552,-2.5529,-2.5522,-2.547,-2.551,-2.551,-2.5509,-2.5509,-2.5509,-2.5811,-2.5809,-2.5785,-2.5772,-2.5756,-2.5741,-2.5735,-2.5714,-2.5702,-2.5681,-2.5663,-2.565,-2.5626,-2.5596,-2.5581,-2.5569,-2.5558,-2.556,-2.5561,-2.5561,-2.5564,-2.5532,-2.5566,-2.5566,-2.5565,-2.5565,-2.5565,0,-2.5855,-2.5838,-2.5826,-2.5803,-2.5793,-2.5773,-2.5753,-2.5745,-2.5734,-2.5714,-2.57,-2.5683,-2.5667,-2.5639,-2.562,-2.5616,-2.5605,-2.5612,-2.5611,-2.5607,-2.5576,-2.5576,-2.5621,-2.5621,-2.5621,-2.5621,-2.5621,-2.5621,-2.5877,-2.5872,-2.5855,-2.5841,-2.5824,-2.5811,-2.5801,-2.5786,-2.577,-2.5752,-2.5739,-2.5721,-2.5697,-2.5676,-2.566,-2.5652,-2.5645,-2.5656,-2.5644,-2.5615,-2.561,-2.5605,-2.5604,-2.5655,-2.5655,-2.5676,-2.5677,-2.5677]}]]